KMADALTO1 Weather Reports


time (UTC)temp
F
wind
direction
speed
knots
gust
knots
rain 1hr
in
rain 24hr
in
rain mn
in
humidity
%
barometer
mb
20260506051051 56 0 0.0 0.0 0.00 0.00 0.00 52 1009.3
20260506050551 56 0 0.0 0.0 0.00 0.00 0.00 53 1009.3
20260506045055 57 0 0.0 0.0 0.00 0.00 0.00 55 1009.2
20260506044605 57 0 0.0 0.0 0.00 0.00 0.00 56 1009.3
20260506044053 57 0 0.0 0.0 0.00 0.00 0.00 57 1009.3
20260506043552 58 0 0.0 0.0 0.00 0.00 0.00 57 1009.3
20260506043052 58 0 0.0 0.0 0.00 0.00 0.00 58 1009.1
20260506042551 58 0 0.0 0.0 0.00 0.00 0.00 58 1009.1
20260506042052 58 0 0.0 0.0 0.00 0.00 0.00 59 1008.9
20260506041557 58 0 0.0 0.0 0.00 0.00 0.00 59 1008.9
20260506041052 59 0 0.0 0.0 0.00 0.00 0.00 60 1008.9
20260506040551 59 0 0.0 0.0 0.00 0.00 0.00 61 1008.7
20260506040057 59 0 0.0 0.0 0.00 0.00 0.00 62 1008.8
20260506035551 59 0 0.0 0.0 0.00 0.00 0.00 62 1008.7
20260506035051 59 0 0.0 0.0 0.00 0.00 0.00 63 1008.8
20260506034552 59 0 0.0 0.0 0.00 0.00 0.00 64 1008.8
20260506034051 60 0 0.0 0.0 0.00 0.00 0.00 64 1008.8
20260506033550 60 0 0.0 0.0 0.00 0.00 0.00 65 1008.8
20260506033052 60 0 0.0 0.0 0.00 0.00 0.00 66 1008.8
20260506032556 60 0 0.0 0.0 0.00 0.00 0.00 66 1008.6
20260506032052 60 0 0.0 0.0 0.00 0.00 0.00 66 1008.7
20260506031558 60 0 0.0 0.0 0.00 0.00 0.00 67 1008.7
20260506031050 61 0 0.0 0.0 0.00 0.00 0.00 67 1008.6
20260506030556 61 0 0.0 0.0 0.00 0.00 0.00 67 1008.7
20260506030055 61 0 0.0 0.0 0.00 0.00 0.00 67 1008.7
20260506025551 61 0 0.0 0.0 0.00 0.00 0.00 67 1008.8
20260506025051 61 0 0.0 0.0 0.00 0.00 0.00 67 1008.8
20260506024600 61 0 0.0 0.0 0.00 0.00 0.00 67 1008.9
20260506024051 61 0 0.0 0.0 0.00 0.00 0.00 67 1008.8
20260506023552 61 0 0.0 0.0 0.00 0.00 0.00 67 1009.0
20260506023058 61 0 0.0 0.0 0.00 0.00 0.00 67 1008.9
20260506022551 61 0 0.0 0.0 0.00 0.00 0.00 67 1008.9
20260506022051 61 0 0.0 0.0 0.00 0.00 0.00 68 1009.0
20260506021550 61 0 0.0 0.0 0.00 0.00 0.00 68 1009.0
20260506021051 61 0 0.0 0.0 0.00 0.00 0.00 68 1008.9
20260506020550 61 0 0.0 0.9 0.00 0.00 0.00 68 1008.9
20260506020048 62 0 0.0 0.9 0.00 0.00 0.00 68 1009.0
20260506015553 62 0 0.0 0.0 0.00 0.00 0.00 68 1008.9
20260506015050 62 0 0.0 0.0 0.00 0.00 0.00 68 1009.0
20260506014554 62 0 0.0 0.0 0.00 0.00 0.00 68 1008.9
20260506014052 62 0 0.0 0.0 0.00 0.00 0.00 68 1008.7
20260506013553 62 0 0.0 0.0 0.00 0.00 0.00 68 1008.8
20260506013052 62 0 0.0 0.0 0.00 0.00 0.00 68 1008.6
20260506012551 62 0 0.0 0.0 0.00 0.00 0.00 68 1008.6
20260506012052 63 0 0.0 0.0 0.00 0.00 0.00 68 1008.6
20260506011556 63 0 0.0 0.0 0.00 0.00 0.00 68 1008.7
20260506011051 63 0 0.0 0.0 0.00 0.00 0.00 68 1008.7
20260506010555 63 0 0.0 1.7 0.00 0.00 0.00 67 1008.6
20260506010054 63 0 0.0 1.7 0.00 0.00 0.00 67 1008.6
20260506005554 63 0 0.0 1.7 0.00 0.00 0.00 67 1008.5
20260506005050 63 0 0.0 0.0 0.00 0.00 0.00 67 1008.5
20260506004554 63 0 0.0 1.7 0.00 0.00 0.00 67 1008.4
20260506004052 63 0 0.0 1.7 0.00 0.00 0.00 67 1008.5
20260506003551 64 0 0.0 1.7 0.00 0.00 0.00 67 1008.4
20260506003053 64 0 0.0 0.9 0.00 0.00 0.00 67 1008.3
20260506002551 64 0 0.0 0.0 0.00 0.00 0.00 67 1008.3
20260506002051 64 0 0.0 0.0 0.00 0.00 0.00 66 1008.2
20260506001601 64 0 0.0 0.0 0.00 0.00 0.00 66 1008.1
20260506001052 64 0 0.0 0.0 0.00 0.00 0.00 65 1008.0
20260506000552 65 0 0.0 0.9 0.00 0.00 0.00 65 1008.1
20260506000054 65 0 0.0 0.9 0.00 0.00 0.00 65 1008.2
20260505235551 65 0 0.0 0.9 0.00 0.00 0.00 65 1008.0
20260505235051 65 0 0.0 1.7 0.00 0.00 0.00 65 1008.0
20260505234559 65 229 0.0 1.7 0.00 0.00 0.00 64 1008.0
20260505234054 65 0 0.9 1.7 0.00 0.00 0.00 64 1008.1
20260505233551 66 0 0.0 2.6 0.00 0.00 0.00 63 1008.2
20260505233055 66 0 0.0 2.6 0.00 0.00 0.00 63 1008.0
20260505232554 66 232 0.9 2.6 0.00 0.00 0.00 62 1007.9
20260505232051 66 186 0.9 7.8 0.00 0.00 0.00 62 1008.0
20260505231602 67 0 1.7 7.8 0.00 0.00 0.00 61 1007.8
20260505231050 67 167 0.9 7.8 0.00 0.00 0.00 60 1007.7
20260505230551 68 355 2.6 9.6 0.00 0.00 0.00 59 1007.7
20260505230059 70 241 3.5 12.2 0.00 0.00 0.00 55 1007.7
20260505225551 72 105 3.5 12.2 0.00 0.00 0.00 49 1007.8
20260505225053 74 251 2.6 11.3 0.00 0.00 0.00 44 1007.5
20260505224554 75 309 6.1 13.9 0.00 0.00 0.00 38 1007.1
20260505224051 75 223 6.1 13.9 0.00 0.00 0.00 37 1006.6
20260505223551 75 187 5.2 12.2 0.00 0.00 0.00 36 1006.2
20260505223049 75 254 3.5 12.2 0.00 0.00 0.00 36 1006.2
20260505222552 75 150 4.3 12.2 0.00 0.00 0.00 35 1005.9
20260505222051 75 297 3.5 13.9 0.00 0.00 0.00 35 1006.1
20260505221557 75 273 5.2 14.8 0.00 0.00 0.00 34 1006.1
20260505221051 75 232 5.2 14.8 0.00 0.00 0.00 34 1006.1
20260505220554 75 257 7.0 13.9 0.00 0.00 0.00 34 1005.9
20260505220056 76 223 2.6 14.8 0.00 0.00 0.00 34 1005.9
20260505215551 76 219 6.1 17.4 0.00 0.00 0.00 34 1006.0
20260505215051 76 213 6.1 17.4 0.00 0.00 0.00 34 1005.9
20260505214555 76 261 6.1 16.5 0.00 0.00 0.00 33 1006.0
20260505214051 76 263 6.1 19.1 0.00 0.00 0.00 34 1005.8
20260505213551 76 198 6.1 19.1 0.00 0.00 0.00 33 1005.9
20260505213059 77 235 7.8 16.5 0.00 0.00 0.00 33 1006.0
20260505212550 77 246 5.2 17.4 0.00 0.00 0.00 33 1005.8
20260505212051 77 267 6.1 17.4 0.00 0.00 0.00 33 1005.8
20260505211558 76 308 7.0 20.9 0.00 0.00 0.00 33 1005.7
20260505211051 76 316 8.7 21.7 0.00 0.00 0.00 33 1005.6
20260505210550 77 232 7.0 21.7 0.00 0.00 0.00 32 1005.6
20260505210054 77 225 4.3 16.5 0.00 0.00 0.00 32 1005.3
20260505205550 77 202 2.6 18.2 0.00 0.00 0.00 32 1005.4
20260505205051 77 279 7.8 18.2 0.00 0.00 0.00 32 1005.4
20260505204557 77 266 5.2 17.4 0.00 0.00 0.00 33 1005.6
20260505204050 77 234 6.1 14.8 0.00 0.00 0.00 33 1006.0
20260505203551 78 259 5.2 17.4 0.00 0.00 0.00 33 1005.8
20260505203100 77 330 7.0 20.9 0.00 0.00 0.00 33 1005.9
20260505202551 77 200 8.7 20.9 0.00 0.00 0.00 33 1005.9
20260505202051 77 225 7.0 16.5 0.00 0.00 0.00 34 1005.9
20260505201601 76 234 7.8 22.6 0.00 0.00 0.00 34 1005.7
20260505201051 77 294 8.7 22.6 0.00 0.00 0.00 34 1005.7
20260505200551 77 155 6.1 16.5 0.00 0.00 0.00 33 1005.8
20260505195553 77 293 7.0 20.9 0.00 0.00 0.00 34 1005.9
20260505195050 77 155 5.2 24.3 0.00 0.00 0.00 36 1006.0
20260505194607 76 248 7.0 24.3 0.00 0.00 0.00 36 1006.0
20260505194050 76 223 7.0 20.0 0.00 0.00 0.00 37 1006.0
20260505193550 75 209 3.5 17.4 0.00 0.00 0.00 37 1006.0
20260505193115 76 266 7.0 17.4 0.00 0.00 0.00 36 1006.0
20260505192550 76 267 5.2 15.6 0.00 0.00 0.00 37 1006.2
20260505192050 76 194 5.2 16.5 0.00 0.00 0.00 37 1006.2
20260505191632 76 192 7.8 19.1 0.00 0.00 0.00 36 1006.2
20260505191049 77 259 7.8 20.0 0.00 0.00 0.00 37 1006.3
20260505190551 76 219 7.0 20.9 0.00 0.00 0.00 37 1006.2
20260505190112 76 136 7.0 20.9 0.00 0.00 0.00 37 1006.4
20260505185553 77 273 8.7 24.3 0.00 0.00 0.00 36 1006.4
20260505185051 77 217 9.6 24.3 0.00 0.00 0.00 37 1006.4
20260505184613 77 235 8.7 21.7 0.00 0.00 0.00 36 1006.3
20260505184051 77 206 7.8 20.0 0.00 0.00 0.00 36 1006.6
20260505183550 77 335 7.8 25.2 0.00 0.00 0.00 37 1006.6
20260505183056 77 304 7.8 26.1 0.00 0.00 0.00 37 1006.6
20260505182550 77 278 7.8 26.1 0.00 0.00 0.00 36 1006.7
20260505182056 77 231 8.7 26.1 0.00 0.00 0.00 37 1006.6
20260505181555 77 308 6.1 23.5 0.00 0.00 0.00 36 1006.5
20260505181050 77 246 7.8 19.1 0.00 0.00 0.00 36 1006.6
20260505180550 77 344 7.8 19.1 0.00 0.00 0.00 37 1007.0
20260505180104 77 313 7.0 18.2 0.00 0.00 0.00 37 1006.8
20260505175554 77 213 7.8 20.9 0.00 0.00 0.00 37 1007.0
20260505175050 77 194 9.6 20.9 0.00 0.00 0.00 37 1007.2
20260505174606 76 257 7.0 23.5 0.00 0.00 0.00 38 1007.1
20260505174051 76 281 8.7 27.8 0.00 0.00 0.00 37 1007.2
20260505173550 76 218 6.1 27.8 0.00 0.00 0.00 39 1007.2
20260505173054 76 254 8.7 21.7 0.00 0.00 0.00 39 1007.1
20260505172552 75 267 6.1 18.2 0.00 0.00 0.00 40 1007.3
20260505172050 75 241 9.6 18.2 0.00 0.00 0.00 41 1007.2
20260505171552 75 249 7.8 17.4 0.00 0.00 0.00 41 1007.2
20260505171051 75 178 7.0 14.8 0.00 0.00 0.00 42 1007.3
20260505170551 75 234 7.0 14.8 0.00 0.00 0.00 42 1007.3
20260505170055 74 281 7.0 17.4 0.00 0.00 0.00 43 1007.4
20260505165550 75 259 5.2 17.4 0.00 0.00 0.00 41 1007.4
20260505165050 75 270 5.2 14.8 0.00 0.00 0.00 41 1007.4
20260505164553 75 239 5.2 13.9 0.00 0.00 0.00 42 1007.4
20260505164050 75 200 5.2 13.0 0.00 0.00 0.00 43 1007.5
20260505163550 75 235 5.2 13.0 0.00 0.00 0.00 44 1007.5
20260505163056 74 234 1.7 12.2 0.00 0.00 0.00 44 1007.6
20260505162549 74 210 4.3 12.2 0.00 0.00 0.00 45 1007.7
20260505162050 73 216 3.5 13.9 0.00 0.00 0.00 44 1007.8
20260505161555 73 252 3.5 13.9 0.00 0.00 0.00 44 1007.9
20260505161051 73 289 4.3 13.9 0.00 0.00 0.00 44 1007.9
20260505160551 74 252 2.6 13.0 0.00 0.00 0.00 45 1007.9
20260505153057 73 281 7.0 13.9 0.00 0.00 0.00 45 1008.5
20260505152551 73 119 3.5 11.3 0.00 0.00 0.00 46 1008.6
20260505152052 72 150 4.3 13.0 0.00 0.00 0.00 45 1008.6
20260505151553 72 331 4.3 13.0 0.00 0.00 0.00 47 1008.7
20260505151050 72 333 2.6 14.8 0.00 0.00 0.00 47 1008.7
20260505150552 71 270 5.2 14.8 0.00 0.00 0.00 48 1008.6
20260505140550 68 275 7.0 21.7 0.00 0.00 0.00 52 1009.3
20260505124557 61 322 4.3 9.6 0.00 0.00 0.00 60 1009.6
20260505124052 61 300 2.6 12.2 0.00 0.00 0.00 61 1009.5
20260505123553 60 165 3.5 12.2 0.00 0.00 0.00 61 1009.5
20260505123101 60 260 5.2 12.2 0.00 0.00 0.00 62 1009.5
20260505122550 59 225 3.5 12.2 0.00 0.00 0.00 63 1009.5
20260505122050 57 257 3.5 8.7 0.00 0.00 0.00 65 1009.4
20260505121554 55 199 3.5 8.7 0.00 0.00 0.00 65 1009.2
20260505121050 54 150 0.9 3.5 0.00 0.00 0.00 62 1009.4
20260505120550 53 215 0.0 2.6 0.00 0.00 0.00 60 1009.4
20260505120054 52 0 0.0 0.0 0.00 0.00 0.00 58 1009.3
20260505115549 51 0 0.0 0.0 0.00 0.00 0.00 55 1009.4
20260505115050 50 0 0.0 0.0 0.00 0.00 0.00 52 1009.4
20260505114600 49 0 0.0 0.0 0.00 0.00 0.00 51 1009.4
20260505114050 49 0 0.0 0.0 0.00 0.00 0.00 50 1009.4
20260505113549 48 0 0.0 0.0 0.00 0.00 0.00 48 1009.4
20260505113057 47 0 0.0 0.0 0.00 0.00 0.00 45 1009.3
20260505112550 46 0 0.0 0.0 0.00 0.00 0.00 43 1009.4
20260505112050 46 0 0.0 0.9 0.00 0.00 0.00 42 1009.4
20260505111557 45 0 0.0 2.6 0.00 0.00 0.00 41 1009.4
20260505111050 44 0 0.0 2.6 0.00 0.00 0.00 41 1009.4
20260505110551 44 0 0.0 1.7 0.00 0.00 0.00 41 1009.1
20260505102050 42 0 0.0 0.0 0.00 0.00 0.00 48 1009.0
20260505101605 42 0 0.0 0.0 0.00 0.00 0.00 48 1009.1
20260505101053 42 0 0.0 0.0 0.00 0.00 0.00 49 1009.1
20260505100550 42 0 0.0 1.7 0.00 0.00 0.00 49 1008.9
20260505100104 42 0 0.0 1.7 0.00 0.00 0.00 49 1008.9
20260505095551 42 0 0.0 1.7 0.00 0.00 0.00 50 1009.0
20260505095050 42 0 0.0 1.7 0.00 0.00 0.00 50 1008.8
20260505094551 43 138 0.0 0.9 0.00 0.00 0.00 51 1008.5
20260505094050 43 0 0.0 0.9 0.00 0.00 0.00 51 1008.5
20260505093550 43 0 0.0 1.7 0.00 0.00 0.00 51 1008.7
20260505093104 43 0 0.0 1.7 0.00 0.00 0.00 51 1008.6
20260505092550 43 327 0.0 1.7 0.00 0.00 0.00 51 1008.7
20260505092050 43 0 0.0 1.7 0.00 0.00 0.00 51 1008.6
20260505091556 43 327 0.0 1.7 0.00 0.00 0.00 51 1008.7
20260505091049 43 0 0.0 0.0 0.00 0.00 0.00 50 1008.6
20260505090550 43 0 0.0 0.0 0.00 0.00 0.00 50 1008.6
20260505090050 43 0 0.0 1.7 0.00 0.00 0.00 49 1008.7
20260505085550 43 0 0.0 1.7 0.00 0.00 0.00 49 1008.7
20260505085051 43 0 0.0 1.7 0.00 0.00 0.00 48 1008.8
20260505084602 43 0 0.0 1.7 0.00 0.00 0.00 48 1008.9
20260505084049 43 0 0.0 0.9 0.00 0.00 0.00 48 1008.9
20260505083551 43 0 0.0 0.0 0.00 0.00 0.00 49 1009.0
20260505083049 43 0 0.0 0.0 0.00 0.00 0.00 49 1009.1
20260505082550 43 0 0.0 0.0 0.00 0.00 0.00 50 1009.2
20260505082050 42 0 0.0 0.0 0.00 0.00 0.00 50 1009.1
20260505081605 42 0 0.0 0.0 0.00 0.00 0.00 50 1009.1
20260505081051 42 0 0.0 0.0 0.00 0.00 0.00 51 1009.1
20260505080553 42 0 0.0 0.0 0.00 0.00 0.00 52 1009.1
20260505080100 42 0 0.0 1.7 0.00 0.00 0.00 52 1009.1
20260505075550 42 0 0.0 1.7 0.00 0.00 0.00 52 1009.0
20260505075050 42 327 0.9 1.7 0.00 0.00 0.00 52 1009.0
20260505074552 42 326 0.0 1.7 0.00 0.00 0.00 53 1008.9
20260505074050 42 323 0.0 0.0 0.00 0.00 0.00 54 1009.0
20260505073550 42 0 0.0 0.0 0.00 0.00 0.00 54 1009.0
20260505073104 42 0 0.0 0.0 0.00 0.00 0.00 55 1009.2
20260505072549 43 0 0.0 0.0 0.00 0.00 0.00 55 1009.2
20260505072049 43 0 0.0 0.0 0.00 0.00 0.00 56 1009.0
20260505071554 43 0 0.0 0.0 0.00 0.00 0.00 57 1009.0
20260505071050 43 0 0.0 0.0 0.00 0.00 0.00 58 1009.0
20260505070551 43 0 0.0 0.0 0.00 0.00 0.00 58 1009.1
20260505070058 43 0 0.0 0.0 0.00 0.00 0.00 59 1009.1
20260505065551 43 0 0.0 0.0 0.00 0.00 0.00 59 1009.2
20260505065051 43 0 0.0 0.0 0.00 0.00 0.00 59 1009.1
20260505064551 43 0 0.0 0.0 0.00 0.00 0.00 60 1009.2
20260505064050 44 0 0.0 0.0 0.00 0.00 0.00 61 1009.1
20260505063551 44 0 0.0 0.0 0.00 0.00 0.00 62 1009.2
20260505063114 44 0 0.0 0.0 0.00 0.00 0.00 62 1009.3
20260505062550 44 0 0.0 1.7 0.00 0.00 0.00 62 1009.3
20260505062049 44 0 0.0 1.7 0.00 0.00 0.00 63 1009.4
20260505061554 44 0 0.0 1.7 0.00 0.00 0.00 63 1009.4
20260505061050 44 0 0.0 0.0 0.00 0.00 0.00 64 1009.5
20260505060550 45 0 0.0 2.6 0.00 0.00 0.00 64 1009.6
20260505060055 45 0 0.0 2.6 0.00 0.00 0.00 64 1009.6
20260505055550 45 323 0.9 2.6 0.00 0.00 0.00 65 1009.6